#timestamp,LO_Frequency,Hit,StdDev 
1678834815.9,286046999.3,N
1678834835.7,286046998.8,N
1678834855.5,286047002.3,N
1678834875.4,286047000.0,N
1678834895.2,286046996.6,N
1678834915.1,286046999.3,N
1678834916.0,286046999.3,N
1678834935.8,286046999.1,N
1678834955.6,286046999.3,N
1678834975.5,286046997.4,N
1678834995.3,286046996.8,N
1678835015.1,286046999.3,N
1678835035.9,286046988.1,Y
1678835055.7,286046987.6,P
1678835075.6,286046989.9,N
1678835095.4,286046988.5,N
1678835115.2,286046989.3,N
1678835135.1,286046989.3,N
1678835136.0,286046989.3,N
1678835155.8,286047001.1,N
1678835175.7,286047002.8,N
1678835195.5,286046999.2,N
1678835215.3,286046998.5,N
1678835235.2,286046998.3,N
1678835255.9,286047002.7,N
1678835275.7,286046998.2,N
1678835295.6,286046998.6,N
1678835315.4,286046998.5,N
1678835335.3,286047000.8,N
1678835355.1,286046998.3,N
1678835356.0,286046998.3,N
1678835375.8,286046998.7,N
1678835395.7,286047001.2,N
1678835415.5,286047000.0,N
1678835435.3,286046998.1,N
1678835455.2,286047000.4,N
1678835475.0,286047000.6,N
1678835475.9,286047000.6,N
1678835495.8,286047002.7,N
1678835515.6,286046996.6,N
1678835535.4,286047001.1,N
1678835555.3,286047000.5,N
1678835575.1,286046999.8,N
1678835595.8,286047000.3,N
1678835615.7,286047000.1,N
1678835635.5,286046998.4,N
1678835655.4,286047000.8,N
1678835675.2,286046998.7,N
1678835695.0,286047000.9,N
1678835695.9,286047000.9,N
1678835715.8,286047000.2,N
1678835735.6,286047002.0,N
1678835755.4,286047000.4,N
1678835775.3,286046998.6,N
1678835795.1,286046999.8,N
1678835815.9,286046999.2,N
1678835835.7,286047000.2,N
1678835855.5,286046998.1,N
1678835875.4,286046999.8,N
1678835895.2,286047000.9,N
1678835915.0,286046998.6,N
1678835915.9,286046998.6,N
1678835935.8,286047002.3,N
1678835955.6,286047002.7,N
1678835975.5,286047002.1,N
1678835995.3,286047002.6,N
1678836015.1,286047001.1,N
1678836035.9,286046998.8,N
1678836055.7,286046999.1,N
1678836075.5,286046998.0,N
1678836095.4,286046998.2,N
1678836115.2,286047002.3,N
1678836135.1,286047001.0,N
1678836136.0,286047001.0,N
1678836155.8,286046998.9,N
1678836175.6,286047002.8,N
1678836195.5,286047002.2,N
1678836215.3,286046995.3,Y
1678836235.2,286046999.9,P
1678836255.9,286046994.9,P
1678836275.7,286047000.7,N
1678836295.6,286047000.9,N
1678836315.4,286046999.1,N
1678836335.2,286046997.1,N
1678836355.1,286047000.7,N
1678836356.0,286047000.7,N
1678836375.8,286046999.3,N
1678836395.7,286046997.8,N
1678836415.5,286046997.4,N
1678836435.3,286046997.1,N
1678836455.2,286046999.9,N
1678836475.9,286046997.7,N
1678836495.7,286046998.5,N
1678836515.6,286046997.9,N
1678836535.4,286047001.6,N
1678836555.2,286046998.7,N
1678836575.1,286046998.4,N
1678836576.0,286046998.4,N
1678836595.8,286046998.1,N
1678836615.7,286046997.3,N
1678836635.5,286046996.6,N
1678836655.3,286046998.4,N
1678836675.2,286046996.7,N
1678836695.0,286046999.1,N
1678836695.9,286046999.1,N
1678836715.8,286046995.9,N
1678836735.6,286046997.7,N
1678836755.4,286046997.4,N
1678836775.3,286046995.7,N
1678836795.1,286046997.0,N
1678836815.8,286046999.4,N
1678836835.7,286046998.0,N
1678836855.5,286046997.8,N
1678836875.4,286046996.8,N
1678836895.2,286046997.1,N
1678836915.0,286046983.7,Y
1678836915.9,286046983.7,P
1678836935.8,286047001.5,N
1678836955.6,286046985.4,N
1678836975.4,286046985.6,N
1678836995.3,286046985.8,N
1678837015.1,286046985.8,N
1678837035.9,286046986.3,N
1678837055.7,286046986.6,N
1678837075.5,286046985.9,N
1678837095.4,286046986.3,N
1678837115.2,286046988.0,N
1678837135.0,286046988.4,N
1678837135.9,286046988.4,N
1678837155.8,286046985.4,N
1678837175.6,286046985.6,Y
1678837195.5,286046999.2,P
1678837215.3,286046996.7,N
1678837235.1,286046999.2,N
1678837255.9,286046997.6,N
1678837275.7,286046998.7,N
1678837295.5,286046999.6,N
1678837315.4,286046998.8,N
1678837335.2,286046997.7,N
1678837355.1,286046997.4,N
1678837356.0,286046997.4,N
1678837375.8,286046997.0,N
1678837395.6,286046997.5,N
1678837415.5,286046999.4,N
1678837435.3,286046997.1,N
1678837455.1,286046997.5,N
1678837475.9,286046995.6,N
1678837495.7,286046995.0,N
1678837515.6,286046997.9,N
1678837535.4,286046997.0,N
1678837555.2,286046997.8,N
1678837575.1,286046999.6,N
1678837576.0,286046999.6,N
1678837595.8,286046997.0,N
1678837615.7,286046999.5,N
1678837635.5,286046999.1,N
1678837655.3,286046996.6,N
1678837675.2,286046998.9,N
1678837695.9,286046998.7,N
1678837715.7,286046999.5,N
1678837735.6,286046999.6,N
1678837755.4,286046997.7,N
1678837775.2,286046999.2,N
1678837795.1,286046997.9,N
1678837796.0,286046997.9,N
1678837815.8,286046995.5,Y
1678837835.7,286046998.8,P
1678837855.5,286046998.9,P
1678837875.3,286046999.2,N
1678837895.2,286046998.3,Y
1678837915.0,286047001.6,P
1678837915.9,286047001.6,N
1678837935.8,286047002.2,N
1678837955.6,286047000.0,N
1678837975.4,286046999.9,N
1678837995.3,286047003.8,Y
1678838015.1,286047002.8,P
1678838035.8,286047000.6,N
1678838055.7,286046999.7,N
1678838075.5,286046998.2,N
1678838095.4,286047000.7,N
1678838115.2,286047000.6,N
1678838135.0,286046998.6,N
1678838135.9,286046998.6,N
1678838155.8,286047000.8,N
1678838175.6,286047000.9,N
1678838195.4,286047000.7,N
1678838215.3,286047000.2,N
1678838235.1,286046999.7,N
1678838255.9,286047002.2,N
1678838275.7,286046999.7,N
1678838295.5,286047000.4,N
1678838315.4,286046998.6,N
1678838335.2,286046998.2,N
1678838355.0,286047000.4,N
1678838356.0,286047000.4,N
1678838375.8,286047001.1,N
1678838395.6,286046999.3,N
